Location: Baumgartsau
(48.4586°N, 14.0864°E)
Time: 04:45:22
(UTC+00:00)

STARLINK-29 - Pass Details

Date: 09 April 2020
Orbit: 387 x 401 km, 53.0° (Epoch: 29 May)

Event Time Altitude Azimuth Distance (km) Brightness Sun altitude
Rises 20:15:24 0° 264° (W) 2,289 7.4 -22.4°
Reaches altitude 10° 20:17:31 10° 271° (W) 1,437 6.4 -22.6°
Enters shadow 20:20:16 42° 325° (NW) 578 4.1 -23.0°
